Location: Eaton Estates
(41.3089°N, 82.0057°W)
Time: 04:32:00
(UTC+00:00)

Lacrosse 5 rocket - Visible Passes

Search period start: 17 October 2021 00:00
Search period end: 27 October 2021 00:00
Orbit: 464 x 629 km, 57.0° (Epoch: 16 October)

Date Brightness Start Highest point End Pass type
(mag) Time Alt. Az. Time Alt. Az. Time Alt. Az.
17 Oct 4.1 08:42:57 16° E 08:42:57 16° E 08:44:35 10° ENE visible
17 Oct 1.5 10:18:35 31° WSW 10:20:25 60° NW 10:24:47 10° NE visible
18 Oct 4.2 08:37:29 16° E 08:37:29 16° E 08:38:42 10° ENE visible
18 Oct 1.8 10:13:07 38° W 10:14:09 47° NW 10:18:25 10° NE visible
19 Oct 4.4 08:31:53 14° ENE 08:31:53 14° ENE 08:32:39 10° ENE visible
19 Oct 2.0 10:07:30 36° NW 10:07:54 37° NW 10:12:01 10° NNE visible
20 Oct 4.6 08:26:11 12° ENE 08:26:11 12° ENE 08:26:30 10° ENE visible
20 Oct 2.4 10:01:48 30° NNW 10:01:48 30° NNW 10:05:37 10° NNE visible
21 Oct 2.9 09:56:00 25° NNW 09:56:00 25° NNW 09:59:11 10° NNE visible
22 Oct 3.2 09:50:09 20° N 09:50:09 20° N 09:52:45 10° NNE visible
23 Oct 3.5 09:44:14 17° N 09:44:14 17° N 09:46:17 10° NNE visible
23 Oct 3.9 11:23:07 10° NNW 11:23:54 10° N 11:24:42 10° N visible
24 Oct 3.7 09:38:16 15° N 09:38:16 15° N 09:39:49 10° NNE visible
24 Oct 3.9 11:17:09 10° N 11:17:50 10° N 11:18:32 10° N visible
25 Oct 3.9 09:32:17 13° N 09:32:17 13° N 09:33:20 10° NNE visible
25 Oct 4.0 11:10:56 10° N 11:11:46 10° N 11:12:37 10° NNE visible
26 Oct 4.1 09:26:16 11° N 09:26:16 11° N 09:26:50 10° NNE visible
26 Oct 4.0 11:04:34 10° N 11:05:42 11° N 11:06:50 10° NNE visible
